Weather History for PAWD - May, 2013

Change the Weather History Date:

Sunday, May 12, 2013

  Actual Average Record
Temperature  
Mean Temperature 50 °F -  
Max Temperature 57 °F 51 °F 74 °F (1968)
Min Temperature 43 °F 38 °F 28 °F (2001)
Degree Days  
Heating Degree Days 15    
Moisture  
Dew Point 42 °F    
Average Humidity 83    
Maximum Humidity 93    
Minimum Humidity 55    
Precipitation  
Precipitation 0.25 in - - ()
Sea Level Pressure  
Sea Level Pressure 29.50 in    
Wind  
Wind Speed 8 mph (NNE)    
Max Wind Speed 14 mph    
Max Gust Speed 20 mph    
Visibility 10 miles    
Events Rain    
Averages and records for this station are not official NWS values.
T = Trace of Precipitation, MM = Missing Value Source: NWS Daily Summary

Daily Weather History Graph

Daily Weather History Graph

Search for Another Location

Airport or City:

Trip Planner

Search our weather history database for the weather conditions in past years. The results will help you decide how hot, cold, wet, or windy it might be!

Date:

Astronomy

May. 12, 2013 Rise Set
Actual Time 5:25 AM AKDT 10:24 PM AKDT
Civil Twilight 4:23 AM AKDT 11:27 PM AKDT
Nautical Twilight 2:26 AM AKDT 1:21 AM AKDT
Astronomical Twilight Sun does not rise Sun does not rise
Moon 7:18 AM AKDT (5/12) 12:20 AM AKDT (5/12)
Length of Visible Light 19h 03m
Length of Day
16h 59m
Waxing Crescent, 7% of the Moon is Illuminated
May 12
Waxing Crescent
May 17
First Quarter
May 24
Full
May 31
Last Quarter
Jun 8
New

Hourly Weather History & Observations

Time (AKDT) Temp. Windchill Dew Point Humidity Pressure Visibility Wind Dir Wind Speed Gust Speed Precip Events Conditions
12:53 AM 46.9 °F - 39.9 °F 77% 29.55 in 10.0 mi North 13.8 mph 19.6 mph N/A   Overcast
1:53 AM 46.9 °F - 39.9 °F 77% 29.54 in 10.0 mi North 12.7 mph - 0.00 in   Overcast
2:53 AM 46.0 °F 40.6 °F 39.9 °F 79% 29.52 in 10.0 mi NNE 11.5 mph - N/A   Overcast
3:53 AM 45.0 °F 38.5 °F 39.9 °F 82% 29.52 in 10.0 mi NNE 13.8 mph 19.6 mph 0.00 in   Overcast
4:53 AM 45.0 °F 40.1 °F 39.0 °F 80% 29.50 in 10.0 mi NNE 9.2 mph - N/A   Overcast
5:53 AM 45.0 °F 38.9 °F 39.9 °F 82% 29.50 in 10.0 mi North 12.7 mph - 0.00 in Rain Light Rain
6:53 AM 45.0 °F 39.7 °F 39.0 °F 80% 29.49 in 10.0 mi North 10.4 mph 17.3 mph 0.00 in   Overcast
7:53 AM 46.9 °F - 39.9 °F 77% 29.49 in 10.0 mi NE 10.4 mph - N/A   Overcast
8:53 AM 46.9 °F - 39.9 °F 77% 29.49 in 10.0 mi NNE 8.1 mph - N/A   Overcast
9:53 AM 50.0 °F - 41.0 °F 71% 29.50 in 10.0 mi North 6.9 mph - N/A   Overcast
10:53 AM 54.0 °F - 41.0 °F 62% 29.49 in 10.0 mi North 9.2 mph - N/A   Overcast
11:53 AM 55.9 °F - 39.9 °F 55% 29.49 in 10.0 mi North 8.1 mph - N/A   Overcast
12:53 PM 54.0 °F - 39.9 °F 59% 29.50 in 10.0 mi SSW 8.1 mph - N/A   Overcast
1:53 PM 50.0 °F - 43.0 °F 77% 29.51 in 10.0 mi SSE 9.2 mph - N/A   Overcast
2:53 PM 48.9 °F - 44.1 °F 83% 29.52 in 10.0 mi SSW 5.8 mph - 0.00 in Rain Light Rain
3:53 PM 46.9 °F - 45.0 °F 93% 29.52 in 10.0 mi SSW 3.5 mph - 0.03 in Rain Light Rain
4:53 PM 48.0 °F - 45.0 °F 89% 29.52 in 8.0 mi Calm Calm - 0.06 in Rain Light Rain
5:53 PM 46.9 °F - 45.0 °F 93% 29.51 in 10.0 mi ESE 3.5 mph - 0.06 in Rain Light Rain
6:53 PM 46.9 °F - 45.0 °F 93% 29.50 in 10.0 mi Calm Calm - 0.01 in Rain Light Rain
7:41 PM 46.4 °F - 44.6 °F 93% 29.49 in 10.0 mi Calm Calm - 0.00 in Rain Light Rain
7:53 PM 46.9 °F - 44.1 °F 90% 29.49 in 10.0 mi Calm Calm - 0.00 in Rain Light Rain
8:40 PM 46.4 °F - 44.6 °F 93% 29.48 in 10.0 mi Calm Calm - 0.02 in Rain Light Rain
8:53 PM 46.9 °F - 44.1 °F 90% 29.48 in 10.0 mi Calm Calm - 0.02 in   Overcast
9:39 PM 46.4 °F - 44.6 °F 93% 29.48 in 10.0 mi Calm Calm - N/A   Overcast
9:53 PM 46.9 °F - 44.1 °F 90% 29.48 in 10.0 mi Calm Calm - N/A   Overcast
10:03 PM 46.4 °F - 44.6 °F 93% 29.48 in 10.0 mi Calm Calm - N/A   Overcast
10:11 PM 46.4 °F - 44.6 °F 93% 29.48 in 10.0 mi Calm Calm - 0.00 in Rain Light Rain
10:53 PM 45.0 °F - 43.0 °F 93% 29.48 in 10.0 mi Calm Calm - 0.01 in Rain Light Rain
11:53 PM 43.0 °F 41.3 °F 41.0 °F 93% 29.48 in 10.0 mi NNW 3.5 mph - 0.06 in Rain Light Rain